Time,TemperatureF,DewpointF,PressureIn,WindDirection,WindDirectionDegrees,WindSpeedMPH,WindSpeedGustMPH,Humidity,HourlyPrecipIn,Conditions,Clouds,dailyrainin,SoftwareType,DateUTC
2013-05-01 00:01:00,72.6,72.6,29.04,ESE,114,6.4,9.2,100,0.00,RA,FEW,0.00,WeatherDisplay:10.37,2013-05-01 05:01:00,
2013-05-01 00:06:00,72.7,72.7,29.03,ESE,114,3.2,5.8,100,0.00,RA,FEW,0.00,WeatherDisplay:10.37,2013-05-01 05:06:00,
2013-05-01 00:11:00,72.7,72.7,29.03,East,100,3.1,4.6,100,0.00,,FEW,0.00,WeatherDisplay:10.37,2013-05-01 05:11:00,
2013-05-01 00:16:00,72.7,72.7,29.03,East,98,5.0,6.9,100,0.00,,FEW,0.00,WeatherDisplay:10.37,2013-05-01 05:16:00,
2013-05-01 00:21:00,72.7,72.7,29.03,ESE,120,5.2,8.1,100,0.00,,FEW,0.00,WeatherDisplay:10.37,2013-05-01 05:21:00,
2013-05-01 00:26:00,72.7,72.7,29.03,ESE,106,7.4,12.7,100,0.00,,FEW,0.00,WeatherDisplay:10.37,2013-05-01 05:26:00,
2013-05-01 00:31:00,72.7,72.7,29.03,SSE,163,6.8,11.5,100,0.00,,FEW,0.00,WeatherDisplay:10.37,2013-05-01 05:31:00,
2013-05-01 00:36:00,72.7,72.7,29.03,East,99,7.1,10.4,100,0.00,,FEW,0.00,WeatherDisplay:10.37,2013-05-01 05:36:00,
2013-05-01 00:41:00,72.7,72.7,29.03,South,180,5.6,8.1,100,0.00,,FEW,0.00,WeatherDisplay:10.37,2013-05-01 05:41:00,
2013-05-01 00:46:00,72.7,72.7,29.03,South,189,1.8,6.9,100,0.00,,FEW,0.00,WeatherDisplay:10.37,2013-05-01 05:46:00,
2013-05-01 00:51:00,72.8,72.8,29.03,SE,130,4.2,5.8,100,0.00,,FEW,0.00,WeatherDisplay:10.37,2013-05-01 05:51:00,
2013-05-01 00:56:00,72.8,72.8,29.03,SE,142,3.8,8.1,100,0.00,,FEW,0.00,WeatherDisplay:10.37,2013-05-01 05:56:00,
2013-05-01 01:01:00,72.8,72.8,29.03,SSW,199,4.3,9.2,100,0.00,,FEW,0.00,WeatherDisplay:10.37,2013-05-01 06:01:00,
2013-05-01 01:06:00,72.8,72.8,29.03,SSE,154,5.1,7.4,100,0.00,,FEW,0.00,WeatherDisplay:10.37,2013-05-01 06:06:00,
2013-05-01 01:11:00,72.8,72.8,29.04,SSE,149,4.8,9.2,100,0.00,,FEW,0.00,WeatherDisplay:10.37,2013-05-01 06:11:00,
2013-05-01 01:16:00,72.7,72.7,29.04,South,175,7.7,8.1,100,0.00,,FEW,0.00,WeatherDisplay:10.37,2013-05-01 06:16:00,
2013-05-01 01:21:00,72.7,72.7,29.04,SSE,164,3.8,10.4,100,0.00,,FEW,0.00,WeatherDisplay:10.37,2013-05-01 06:21:00,
2013-05-01 01:26:00,72.7,72.7,29.04,SE,144,3.8,5.8,100,0.00,,FEW,0.00,WeatherDisplay:10.37,2013-05-01 06:26:00,
2013-05-01 01:31:00,72.7,72.7,29.04,SE,135,4.1,5.8,100,0.00,,FEW,0.00,WeatherDisplay:10.37,2013-05-01 06:31:00,
2013-05-01 01:36:00,72.6,72.6,29.04,SE,141,3.5,5.8,100,0.00,,FEW,0.00,WeatherDisplay:10.37,2013-05-01 06:36:00,
2013-05-01 01:41:00,72.5,72.5,29.04,SE,139,5.5,5.8,100,0.00,,FEW,0.00,WeatherDisplay:10.37,2013-05-01 06:41:00,
2013-05-01 01:46:00,72.5,72.5,29.04,SSE,158,2.3,4.6,100,0.00,,FEW,0.00,WeatherDisplay:10.37,2013-05-01 06:46:00,
2013-05-01 01:51:00,72.5,72.5,29.04,SSE,162,3.7,5.8,100,0.00,,FEW,0.00,WeatherDisplay:10.37,2013-05-01 06:51:00,
2013-05-01 01:56:00,72.5,72.5,29.03,South,180,2.5,7.4,100,0.00,,FEW,0.00,WeatherDisplay:10.37,2013-05-01 06:56:00,
2013-05-01 02:01:00,72.5,72.5,29.03,South,170,3.1,4.6,100,0.00,,FEW,0.00,WeatherDisplay:10.37,2013-05-01 07:01:00,
2013-05-01 02:06:00,72.5,72.5,29.03,WSW,242,2.2,3.5,100,0.00,,FEW,0.00,WeatherDisplay:10.37,2013-05-01 07:06:00,
2013-05-01 02:11:00,72.5,72.5,29.03,SSE,154,2.3,4.6,100,0.00,,FEW,0.00,WeatherDisplay:10.37,2013-05-01 07:11:00,
2013-05-01 02:16:00,72.6,72.6,29.02,SE,140,2.6,4.6,100,0.00,,FEW,0.00,WeatherDisplay:10.37,2013-05-01 07:16:00,
2013-05-01 02:21:00,72.6,72.6,29.02,SSW,192,3.9,5.8,100,0.00,,FEW,0.00,WeatherDisplay:10.37,2013-05-01 07:21:00,
2013-05-01 02:26:00,72.5,72.5,29.02,SE,128,2.1,5.8,100,0.00,,FEW,0.00,WeatherDisplay:10.37,2013-05-01 07:26:00,
2013-05-01 02:31:00,72.6,72.6,29.02,South,183,1.9,5.8,100,0.00,,FEW,0.00,WeatherDisplay:10.37,2013-05-01 07:31:00,
2013-05-01 02:36:00,72.6,72.6,29.02,SSE,159,0.8,3.5,100,0.00,,FEW,0.00,WeatherDisplay:10.37,2013-05-01 07:36:00,
2013-05-01 02:41:00,72.7,72.7,29.02,SW,220,3.4,5.8,100,0.00,,FEW,0.00,WeatherDisplay:10.37,2013-05-01 07:41:00,
2013-05-01 02:46:00,72.8,72.8,29.02,SW,230,4.4,6.9,100,0.00,,FEW,0.00,WeatherDisplay:10.37,2013-05-01 07:46:00,
2013-05-01 02:51:00,72.9,72.9,29.02,South,175,2.9,4.6,100,0.00,,FEW,0.00,WeatherDisplay:10.37,2013-05-01 07:51:00,
2013-05-01 02:56:00,73.0,73.0,29.02,SSW,199,5.0,5.8,100,0.00,,FEW,0.00,WeatherDisplay:10.37,2013-05-01 07:56:00,
2013-05-01 03:01:00,73.1,73.1,29.02,SW,217,3.8,5.8,100,0.00,,FEW,0.00,WeatherDisplay:10.37,2013-05-01 08:01:00,
2013-05-01 03:06:00,73.1,73.1,29.01,SSW,207,3.6,4.6,100,0.00,,FEW,0.00,WeatherDisplay:10.37,2013-05-01 08:06:00,
2013-05-01 03:11:00,73.2,73.2,29.01,SSE,156,1.5,3.5,100,0.00,,FEW,0.00,WeatherDisplay:10.37,2013-05-01 08:11:00,
2013-05-01 03:16:00,73.2,73.2,29.01,SSE,152,0.5,2.3,100,0.00,,FEW,0.00,WeatherDisplay:10.37,2013-05-01 08:16:00,
2013-05-01 03:21:00,73.1,73.1,29.00,SE,137,3.8,5.8,100,0.00,,FEW,0.00,WeatherDisplay:10.37,2013-05-01 08:21:00,
2013-05-01 03:26:00,73.1,73.1,29.00,SSE,150,5.8,9.2,100,0.00,,FEW,0.00,WeatherDisplay:10.37,2013-05-01 08:26:00,
2013-05-01 03:31:00,72.9,72.9,29.00,SE,141,3.3,5.8,100,0.00,,FEW,0.00,WeatherDisplay:10.37,2013-05-01 08:31:00,
2013-05-01 03:36:00,72.8,72.8,29.00,SE,135,3.3,5.8,100,0.00,,FEW,0.00,WeatherDisplay:10.37,2013-05-01 08:36:00,
2013-05-01 03:41:00,72.8,72.8,29.00,SSW,194,3.9,5.8,100,0.00,,FEW,0.00,WeatherDisplay:10.37,2013-05-01 08:41:00,
2013-05-01 03:46:00,72.8,72.8,29.00,ESE,110,0.9,2.3,100,0.00,,FEW,0.00,WeatherDisplay:10.37,2013-05-01 08:46:00,
2013-05-01 03:51:00,72.8,72.8,29.00,SSE,159,2.8,7.4,100,0.00,,FEW,0.00,WeatherDisplay:10.37,2013-05-01 08:51:00,
2013-05-01 03:56:00,72.8,72.8,29.00,SE,140,4.4,8.4,100,0.00,,FEW,0.00,WeatherDisplay:10.37,2013-05-01 08:56:00,
2013-05-01 04:01:00,72.8,72.8,29.00,SSE,160,3.4,4.6,100,0.00,,FEW,0.00,WeatherDisplay:10.37,2013-05-01 09:01:00,
2013-05-01 04:06:00,72.7,72.7,29.00,SSE,147,3.6,5.8,100,0.00,,FEW,0.00,WeatherDisplay:10.37,2013-05-01 09:06:00,
2013-05-01 04:11:00,72.6,72.6,29.00,WSW,251,2.1,5.8,100,0.00,,FEW,0.00,WeatherDisplay:10.37,2013-05-01 09:11:00,
2013-05-01 04:16:00,72.5,72.5,29.00,SSW,197,1.9,4.6,100,0.00,,FEW,0.00,WeatherDisplay:10.37,2013-05-01 09:16:00,
2013-05-01 04:21:00,72.4,72.4,29.00,SSE,168,1.1,3.5,100,0.00,,FEW,0.00,WeatherDisplay:10.37,2013-05-01 09:21:00,
2013-05-01 04:26:00,72.3,72.3,29.00,SW,222,0.0,3.5,100,0.00,,FEW,0.00,WeatherDisplay:10.37,2013-05-01 09:26:00,
2013-05-01 04:31:00,72.2,72.2,29.00,SSE,156,0.8,3.5,100,0.00,,FEW,0.00,WeatherDisplay:10.37,2013-05-01 09:31:00,
2013-05-01 04:36:00,72.1,72.1,29.00,SSE,152,1.1,3.2,100,0.00,,FEW,0.00,WeatherDisplay:10.37,2013-05-01 09:36:00,
2013-05-01 04:41:00,72.0,72.0,29.00,SW,227,0.3,2.3,100,0.00,,FEW,0.00,WeatherDisplay:10.37,2013-05-01 09:41:00,
2013-05-01 04:46:00,72.0,72.0,29.00,WSW,238,0.1,0.0,100,0.00,,FEW,0.00,WeatherDisplay:10.37,2013-05-01 09:46:00,
2013-05-01 04:51:00,72.0,72.0,29.00,SW,223,1.4,2.3,100,0.00,,FEW,0.00,WeatherDisplay:10.37,2013-05-01 09:51:00,
2013-05-01 04:56:00,71.9,71.9,29.00,SSE,151,0.1,1.1,100,0.00,,FEW,0.00,WeatherDisplay:10.37,2013-05-01 09:56:00,
2013-05-01 05:01:00,71.8,71.8,29.00,SSE,151,0.0,0.0,100,0.00,,FEW,0.00,WeatherDisplay:10.37,2013-05-01 10:01:00,
2013-05-01 05:06:00,71.7,71.7,29.00,SSE,151,0.0,0.0,100,0.00,,FEW,0.00,WeatherDisplay:10.37,2013-05-01 10:06:00,
2013-05-01 05:11:00,71.7,71.7,29.00,SE,135,0.0,0.0,100,0.00,,FEW,0.00,WeatherDisplay:10.37,2013-05-01 10:11:00,
2013-05-01 05:16:00,71.6,71.6,29.00,SSE,147,0.1,0.0,100,0.00,,FEW,0.00,WeatherDisplay:10.37,2013-05-01 10:16:00,
2013-05-01 05:21:00,71.7,71.7,29.00,SE,129,0.3,1.1,100,0.00,,FEW,0.00,WeatherDisplay:10.37,2013-05-01 10:21:00,
2013-05-01 05:26:00,71.7,71.7,29.00,SSE,164,0.5,2.3,100,0.00,,FEW,0.00,WeatherDisplay:10.37,2013-05-01 10:26:00,
2013-05-01 05:31:00,71.7,71.7,29.00,SE,137,0.4,1.1,100,0.00,,FEW,0.00,WeatherDisplay:10.37,2013-05-01 10:31:00,
2013-05-01 05:36:00,71.8,71.8,29.00,WSW,238,1.7,4.6,100,0.00,,FEW,0.00,WeatherDisplay:10.37,2013-05-01 10:36:00,
2013-05-01 05:41:00,71.7,71.7,29.01,SE,139,0.9,3.5,100,0.00,,FEW,0.00,WeatherDisplay:10.37,2013-05-01 10:41:00,
2013-05-01 05:46:00,71.8,71.8,29.01,SE,142,0.0,0.0,100,0.00,,FEW,0.00,WeatherDisplay:10.37,2013-05-01 10:46:00,
2013-05-01 05:51:00,71.8,71.8,29.01,SE,141,0.0,0.0,100,0.00,,FEW,0.00,WeatherDisplay:10.37,2013-05-01 10:51:00,
2013-05-01 05:56:00,71.8,71.8,29.02,ESE,116,0.1,1.1,100,0.00,,FEW,0.00,WeatherDisplay:10.37,2013-05-01 10:56:00,
2013-05-01 06:01:00,71.9,71.9,29.02,East,99,0.6,1.1,100,0.00,,FEW,0.00,WeatherDisplay:10.37,2013-05-01 11:01:00,
2013-05-01 06:06:00,71.9,71.9,29.03,ESE,108,0.0,0.0,100,0.00,,FEW,0.00,WeatherDisplay:10.37,2013-05-01 11:06:00,
2013-05-01 06:11:00,71.9,71.9,29.03,ESE,108,0.0,0.0,100,0.00,,FEW,0.00,WeatherDisplay:10.37,2013-05-01 11:11:00,
2013-05-01 06:16:00,72.0,72.0,29.03,SSE,151,1.9,3.5,100,0.00,,FEW,0.00,WeatherDisplay:10.37,2013-05-01 11:16:00,
2013-05-01 06:21:00,72.1,72.1,29.03,SE,132,0.2,1.1,100,0.00,,FEW,0.00,WeatherDisplay:10.37,2013-05-01 11:21:00,
2013-05-01 06:26:00,72.1,72.1,29.03,SSE,147,0.3,1.1,100,0.00,,FEW,0.00,WeatherDisplay:10.37,2013-05-01 11:26:00,
2013-05-01 06:31:00,72.1,72.1,29.03,SSE,147,0.1,1.1,100,0.00,,FEW,0.00,WeatherDisplay:10.37,2013-05-01 11:31:00,
2013-05-01 06:36:00,72.1,72.1,29.04,East,101,1.2,2.3,100,0.00,,FEW,0.00,WeatherDisplay:10.37,2013-05-01 11:36:00,
2013-05-01 06:41:00,72.1,72.1,29.04,SE,132,0.0,0.0,100,0.00,,FEW,0.00,WeatherDisplay:10.37,2013-05-01 11:41:00,
2013-05-01 06:46:00,72.1,72.1,29.04,SE,128,1.0,1.1,100,0.00,,FEW,0.00,WeatherDisplay:10.37,2013-05-01 11:46:00,
2013-05-01 06:51:00,72.2,72.2,29.04,SSE,163,0.8,2.3,100,0.00,,FEW,0.00,WeatherDisplay:10.37,2013-05-01 11:51:00,
2013-05-01 06:56:00,72.2,72.2,29.05,South,169,0.4,2.3,100,0.00,,FEW,0.00,WeatherDisplay:10.37,2013-05-01 11:56:00,
2013-05-01 07:01:00,72.2,72.2,29.05,SE,142,0.6,1.1,100,0.00,,FEW,0.00,WeatherDisplay:10.37,2013-05-01 12:01:00,
2013-05-01 07:06:00,72.3,72.3,29.05,South,180,0.0,0.0,100,0.00,,FEW,0.00,WeatherDisplay:10.37,2013-05-01 12:06:00,
2013-05-01 07:11:00,72.3,72.3,29.05,SE,140,1.3,2.3,100,0.00,,FEW,0.00,WeatherDisplay:10.37,2013-05-01 12:11:00,
2013-05-01 07:16:00,72.3,72.3,29.05,SSE,152,1.3,2.3,100,0.00,,FEW,0.00,WeatherDisplay:10.37,2013-05-01 12:16:00,
2013-05-01 07:21:00,72.4,72.4,29.06,ESE,122,0.2,1.1,100,0.00,,FEW,0.00,WeatherDisplay:10.37,2013-05-01 12:21:00,
2013-05-01 07:26:00,72.4,72.4,29.05,ESE,120,1.7,2.3,100,0.00,,FEW,0.00,WeatherDisplay:10.37,2013-05-01 12:26:00,
2013-05-01 07:31:00,72.4,72.4,29.05,ESE,113,1.1,3.5,100,0.00,,FEW,0.00,WeatherDisplay:10.37,2013-05-01 12:31:00,
2013-05-01 07:36:00,72.3,72.3,29.05,SE,135,0.4,1.1,100,0.00,,FEW,0.00,WeatherDisplay:10.37,2013-05-01 12:36:00,
2013-05-01 07:41:00,72.3,72.3,29.06,ESE,114,2.1,3.5,100,0.00,,FEW,0.00,WeatherDisplay:10.37,2013-05-01 12:41:00,
2013-05-01 07:46:00,72.3,72.3,29.06,ESE,117,2.1,4.6,100,0.00,,FEW,0.00,WeatherDisplay:10.37,2013-05-01 12:46:00,
2013-05-01 07:51:00,72.3,72.3,29.06,SE,140,3.4,5.8,100,0.00,,FEW,0.00,WeatherDisplay:10.37,2013-05-01 12:51:00,
2013-05-01 07:56:00,72.2,72.2,29.06,SE,128,2.3,5.8,100,0.00,,FEW,0.00,WeatherDisplay:10.37,2013-05-01 12:56:00,
2013-05-01 08:01:00,72.3,72.3,29.06,SE,135,1.3,5.3,100,0.00,,FEW,0.00,WeatherDisplay:10.37,2013-05-01 13:01:00,
2013-05-01 08:06:00,72.4,72.4,29.06,SSE,156,1.2,2.3,100,0.00,,FEW,0.00,WeatherDisplay:10.37,2013-05-01 13:06:00,
2013-05-01 08:11:00,72.5,72.5,29.06,ESE,114,2.7,3.5,100,0.00,,FEW,0.00,WeatherDisplay:10.37,2013-05-01 13:11:00,
2013-05-01 08:16:00,72.6,72.6,29.06,SE,125,4.7,5.8,100,0.00,,FEW,0.00,WeatherDisplay:10.37,2013-05-01 13:16:00,
2013-05-01 08:21:00,72.7,72.7,29.06,SSE,155,3.0,4.6,100,0.00,,FEW,0.00,WeatherDisplay:10.37,2013-05-01 13:21:00,
2013-05-01 08:26:00,72.8,72.8,29.07,SE,132,3.1,5.3,100,0.00,,FEW,0.00,WeatherDisplay:10.37,2013-05-01 13:26:00,
2013-05-01 08:31:00,72.8,72.8,29.06,ESE,121,5.5,6.9,100,0.00,,FEW,0.00,WeatherDisplay:10.37,2013-05-01 13:31:00,
2013-05-01 08:36:00,72.9,72.9,29.06,SSW,211,2.2,4.6,100,0.00,,FEW,0.00,WeatherDisplay:10.37,2013-05-01 13:36:00,
2013-05-01 08:41:00,73.0,73.0,29.06,SW,235,2.3,5.8,100,0.00,,FEW,0.00,WeatherDisplay:10.37,2013-05-01 13:41:00,
2013-05-01 08:46:00,73.0,73.0,29.07,South,173,3.3,5.8,100,0.00,,FEW,0.00,WeatherDisplay:10.37,2013-05-01 13:46:00,
2013-05-01 08:51:00,73.0,73.0,29.07,SSE,164,3.4,5.8,100,0.00,,FEW,0.00,WeatherDisplay:10.37,2013-05-01 13:51:00,
2013-05-01 08:56:00,73.0,73.0,29.07,SW,217,1.3,2.3,100,0.00,,FEW,0.00,WeatherDisplay:10.37,2013-05-01 13:56:00,
2013-05-01 09:01:00,73.0,73.0,29.07,SSE,159,3.3,5.8,100,0.00,,FEW,0.00,WeatherDisplay:10.37,2013-05-01 14:01:00,
2013-05-01 09:06:00,73.1,73.1,29.07,South,170,2.5,4.6,100,0.00,,FEW,0.00,WeatherDisplay:10.37,2013-05-01 14:06:00,
2013-05-01 09:11:00,73.1,73.1,29.07,SSE,165,2.4,3.5,100,0.00,,FEW,0.00,WeatherDisplay:10.37,2013-05-01 14:11:00,
2013-05-01 09:16:00,73.3,73.3,29.07,ESE,109,0.0,2.3,100,0.00,,FEW,0.00,WeatherDisplay:10.37,2013-05-01 14:16:00,
2013-05-01 09:21:00,73.5,73.5,29.07,SSE,165,3.4,5.8,100,0.00,,FEW,0.00,WeatherDisplay:10.37,2013-05-01 14:21:00,
2013-05-01 09:26:00,73.7,73.7,29.08,ESE,119,2.4,3.5,100,0.00,,FEW,0.00,WeatherDisplay:10.37,2013-05-01 14:26:00,
2013-05-01 09:31:00,73.9,73.9,29.08,SW,230,4.0,5.8,100,0.00,,FEW,0.00,WeatherDisplay:10.37,2013-05-01 14:31:00,
2013-05-01 09:36:00,74.1,74.1,29.08,SE,130,3.1,4.6,100,0.00,,FEW,0.00,WeatherDisplay:10.37,2013-05-01 14:36:00,
2013-05-01 09:41:00,74.5,74.5,29.08,SE,135,1.0,4.6,100,0.00,,FEW,0.00,WeatherDisplay:10.37,2013-05-01 14:41:00,
2013-05-01 09:46:00,74.8,74.8,29.08,SSE,156,3.8,4.6,100,0.00,,FEW,0.00,WeatherDisplay:10.37,2013-05-01 14:46:00,
2013-05-01 09:51:00,74.9,73.4,29.08,SE,140,3.6,6.3,95,0.00,,FEW,0.00,WeatherDisplay:10.37,2013-05-01 14:51:00,
2013-05-01 09:56:00,75.2,73.7,29.08,ESE,121,2.4,3.5,95,0.00,,FEW,0.00,WeatherDisplay:10.37,2013-05-01 14:56:00,
2013-05-01 10:01:00,75.2,73.4,29.08,SSE,156,3.4,5.8,94,0.00,,FEW,0.00,WeatherDisplay:10.37,2013-05-01 15:01:00,
2013-05-01 10:06:00,75.3,73.5,29.08,SSE,158,2.0,3.2,94,0.00,,FEW,0.00,WeatherDisplay:10.37,2013-05-01 15:06:00,
2013-05-01 10:11:00,75.4,73.6,29.09,SSE,148,1.2,2.3,94,0.00,,FEW,0.00,WeatherDisplay:10.37,2013-05-01 15:11:00,
2013-05-01 10:16:00,75.3,73.1,29.09,East,85,5.4,6.9,93,0.00,,FEW,0.00,WeatherDisplay:10.37,2013-05-01 15:16:00,
2013-05-01 10:21:00,75.3,73.1,29.09,SE,146,4.5,5.8,93,0.00,,FEW,0.00,WeatherDisplay:10.37,2013-05-01 15:21:00,
2013-05-01 10:26:00,75.4,73.2,29.09,East,98,5.9,7.4,93,0.00,,FEW,0.00,WeatherDisplay:10.37,2013-05-01 15:26:00,
2013-05-01 10:31:00,75.5,73.3,29.09,SSE,151,4.3,5.8,93,0.00,,FEW,0.00,WeatherDisplay:10.37,2013-05-01 15:31:00,
2013-05-01 10:36:00,75.6,73.1,29.09,SE,142,3.0,4.6,92,0.00,,FEW,0.00,WeatherDisplay:10.37,2013-05-01 15:36:00,
2013-05-01 10:41:00,75.8,73.3,29.09,SE,132,3.9,7.4,92,0.00,,FEW,0.00,WeatherDisplay:10.37,2013-05-01 15:41:00,
2013-05-01 10:46:00,76.0,73.5,29.09,SE,124,6.3,9.2,92,0.00,,FEW,0.00,WeatherDisplay:10.37,2013-05-01 15:46:00,
2013-05-01 10:51:00,76.7,74.2,29.09,SE,132,8.2,9.2,92,0.00,,FEW,0.00,WeatherDisplay:10.37,2013-05-01 15:51:00,
2013-05-01 10:56:00,77.1,74.3,29.10,East,98,4.4,6.9,91,0.00,,FEW,0.00,WeatherDisplay:10.37,2013-05-01 15:56:00,
2013-05-01 11:01:00,77.1,73.9,29.10,East,98,6.3,7.4,90,0.00,,FEW,0.00,WeatherDisplay:10.37,2013-05-01 16:01:00,
2013-05-01 11:06:00,77.4,74.2,29.09,South,177,3.5,8.1,90,0.00,,FEW,0.00,WeatherDisplay:10.37,2013-05-01 16:06:00,
2013-05-01 11:11:00,77.9,74.1,29.09,SSE,159,7.2,10.4,88,0.00,,FEW,0.00,WeatherDisplay:10.37,2013-05-01 16:11:00,
2013-05-01 11:16:00,78.5,74.3,29.10,East,98,6.4,11.5,87,0.00,,FEW,0.00,WeatherDisplay:10.37,2013-05-01 16:16:00,
2013-05-01 11:21:00,78.3,74.5,29.10,East,90,2.7,5.8,88,0.00,,FEW,0.00,WeatherDisplay:10.37,2013-05-01 16:21:00,
2013-05-01 11:26:00,78.2,74.0,29.10,ESE,120,4.9,6.9,87,0.00,,FEW,0.00,WeatherDisplay:10.37,2013-05-01 16:26:00,
2013-05-01 11:31:00,78.1,73.9,29.10,ESE,111,7.4,9.2,87,0.00,,FEW,0.00,WeatherDisplay:10.37,2013-05-01 16:31:00,
2013-05-01 11:36:00,78.3,74.1,29.10,ESE,111,5.5,9.2,87,0.00,,FEW,0.00,WeatherDisplay:10.37,2013-05-01 16:36:00,
2013-05-01 11:41:00,78.7,74.5,29.10,ESE,104,3.1,5.8,87,0.00,,FEW,0.00,WeatherDisplay:10.37,2013-05-01 16:41:00,
2013-05-01 11:46:00,78.7,74.2,29.10,SE,133,5.3,11.5,86,0.00,,FEW,0.00,WeatherDisplay:10.37,2013-05-01 16:46:00,
2013-05-01 11:51:00,79.0,74.5,29.09,SSE,161,6.5,8.1,86,0.00,,FEW,0.00,WeatherDisplay:10.37,2013-05-01 16:51:00,
2013-05-01 11:56:00,79.1,74.5,29.09,SE,128,6.1,8.1,86,0.00,,FEW,0.00,WeatherDisplay:10.37,2013-05-01 16:56:00,
2013-05-01 12:01:00,79.6,74.7,29.09,ENE,78,6.7,9.2,85,0.00,,FEW,0.00,WeatherDisplay:10.37,2013-05-01 17:01:00,
2013-05-01 12:06:00,79.7,74.1,29.09,SE,132,7.1,10.4,83,0.00,,FEW,0.00,WeatherDisplay:10.37,2013-05-01 17:06:00,
2013-05-01 12:11:00,79.2,74.3,29.09,ESE,105,3.3,6.3,85,0.00,,FEW,0.00,WeatherDisplay:10.37,2013-05-01 17:11:00,
2013-05-01 12:16:00,79.5,74.6,29.09,SSE,152,7.8,10.4,85,0.00,,FEW,0.00,WeatherDisplay:10.37,2013-05-01 17:16:00,
2013-05-01 12:21:00,79.4,74.5,29.09,ESE,111,6.1,15.0,85,0.00,,FEW,0.00,WeatherDisplay:10.37,2013-05-01 17:21:00,
2013-05-01 12:26:00,79.8,74.5,29.09,ESE,108,6.3,11.5,84,0.00,,FEW,0.00,WeatherDisplay:10.37,2013-05-01 17:26:00,
2013-05-01 12:31:00,80.5,74.9,29.09,SE,145,4.1,10.4,83,0.00,,FEW,0.00,WeatherDisplay:10.37,2013-05-01 17:31:00,
2013-05-01 12:36:00,80.2,74.2,29.08,East,99,8.1,10.4,82,0.00,,FEW,0.00,WeatherDisplay:10.37,2013-05-01 17:36:00,
2013-05-01 12:41:00,79.9,74.6,29.08,ESE,116,4.1,8.1,84,0.00,,FEW,0.00,WeatherDisplay:10.37,2013-05-01 17:41:00,
2013-05-01 12:46:00,80.0,74.4,29.08,SE,125,7.6,11.5,83,0.00,,FEW,0.00,WeatherDisplay:10.37,2013-05-01 17:46:00,
2013-05-01 12:51:00,80.1,74.8,29.08,East,90,6.3,9.2,84,0.00,,FEW,0.00,WeatherDisplay:10.37,2013-05-01 17:51:00,
2013-05-01 12:56:00,80.2,74.2,29.08,East,80,8.5,12.7,82,0.00,,FEW,0.00,WeatherDisplay:10.37,2013-05-01 17:56:00,
2013-05-01 13:01:00,80.2,74.9,29.08,ENE,76,0.8,5.8,84,0.00,,FEW,0.00,WeatherDisplay:10.37,2013-05-01 18:01:00,
2013-05-01 17:46:00,78.1,73.9,29.06,East,98,0.0,7.4,87,0.00,CLR,FEW,0.00,WeatherDisplay:10.37,2013-05-01 22:46:00,
2013-05-01 17:51:00,78.2,73.7,29.06,ESE,102,6.7,6.9,86,0.00,,FEW,0.00,WeatherDisplay:10.37,2013-05-01 22:51:00,
2013-05-01 17:56:00,77.9,73.4,29.06,ENE,76,7.1,7.4,86,0.00,,FEW,0.00,WeatherDisplay:10.37,2013-05-01 22:56:00,
2013-05-01 18:01:00,77.8,73.6,29.06,ESE,109,4.3,8.1,87,0.00,,FEW,0.00,WeatherDisplay:10.37,2013-05-01 23:01:00,
2013-05-01 18:06:00,77.8,73.3,29.06,East,87,7.0,8.1,86,0.00,,FEW,0.00,WeatherDisplay:10.37,2013-05-01 23:06:00,
2013-05-01 18:11:00,77.6,73.4,29.06,East,94,6.0,9.2,87,0.00,,FEW,0.00,WeatherDisplay:10.37,2013-05-01 23:11:00,
2013-05-01 18:16:00,77.5,73.3,29.07,East,81,7.0,11.5,87,0.00,,FEW,0.00,WeatherDisplay:10.37,2013-05-01 23:16:00,
2013-05-01 18:21:00,77.5,73.3,29.07,East,85,1.6,10.4,87,0.00,,FEW,0.00,WeatherDisplay:10.37,2013-05-01 23:21:00,
2013-05-01 18:26:00,77.2,72.7,29.06,ESE,111,7.9,10.4,86,0.00,,FEW,0.00,WeatherDisplay:10.37,2013-05-01 23:26:00,
2013-05-01 18:31:00,77.3,73.1,29.06,ESE,106,4.9,5.8,87,0.00,,FEW,0.00,WeatherDisplay:10.37,2013-05-01 23:31:00,
2013-05-01 18:36:00,77.0,72.8,29.06,East,87,6.6,11.5,87,0.00,,FEW,0.00,WeatherDisplay:10.37,2013-05-01 23:36:00,
2013-05-01 18:41:00,77.1,73.3,29.06,ENE,71,4.2,9.4,88,0.00,,FEW,0.00,WeatherDisplay:10.37,2013-05-01 23:41:00,
2013-05-01 18:46:00,77.1,73.3,29.06,ENE,66,12.4,12.4,88,0.00,,FEW,0.00,WeatherDisplay:10.37,2013-05-01 23:46:00,
2013-05-01 18:51:00,77.0,72.8,29.06,ESE,104,2.4,6.9,87,0.00,,FEW,0.00,WeatherDisplay:10.37,2013-05-01 23:51:00,
2013-05-01 18:56:00,76.8,73.0,29.06,NE,56,12.0,12.0,88,0.00,,FEW,0.00,WeatherDisplay:10.37,2013-05-01 23:56:00,
2013-05-01 19:01:00,76.6,73.1,29.06,ESE,109,0.9,5.8,89,0.00,,FEW,0.00,WeatherDisplay:10.37,2013-05-02 00:01:00,
2013-05-01 19:06:00,76.6,73.1,29.06,ENE,70,6.1,6.1,89,0.00,,FEW,0.00,WeatherDisplay:10.37,2013-05-02 00:06:00,
2013-05-01 19:11:00,76.5,73.0,29.06,East,90,0.8,5.8,89,0.00,,FEW,0.00,WeatherDisplay:10.37,2013-05-02 00:11:00,
2013-05-01 19:16:00,76.3,72.8,29.06,ENE,70,5.4,5.8,89,0.00,,FEW,0.00,WeatherDisplay:10.37,2013-05-02 00:16:00,
2013-05-01 19:21:00,76.1,73.0,29.06,ESE,118,0.3,2.3,90,0.00,,FEW,0.00,WeatherDisplay:10.37,2013-05-02 00:21:00,
2013-05-01 19:26:00,75.9,72.8,29.06,ESE,102,1.3,4.6,90,0.00,,FEW,0.00,WeatherDisplay:10.37,2013-05-02 00:26:00,
2013-05-01 19:31:00,75.7,72.6,29.07,East,85,5.2,8.1,90,0.00,,FEW,0.00,WeatherDisplay:10.37,2013-05-02 00:31:00,
2013-05-01 19:36:00,75.3,72.5,29.07,ENE,69,4.4,9.2,91,0.00,,FEW,0.00,WeatherDisplay:10.37,2013-05-02 00:36:00,
2013-05-01 19:41:00,75.0,72.2,29.07,ESE,103,1.7,11.5,91,0.00,,FEW,0.00,WeatherDisplay:10.37,2013-05-02 00:41:00,
2013-05-01 19:46:00,74.9,72.4,29.07,East,90,5.2,8.1,92,0.00,,FEW,0.00,WeatherDisplay:10.37,2013-05-02 00:46:00,
2013-05-01 19:51:00,74.6,72.1,29.07,ENE,73,0.2,8.1,92,0.00,,FEW,0.00,WeatherDisplay:10.37,2013-05-02 00:51:00,
2013-05-01 19:56:00,74.4,71.9,29.07,ESE,116,3.3,6.3,92,0.00,,FEW,0.00,WeatherDisplay:10.37,2013-05-02 00:56:00,
2013-05-01 20:01:00,74.2,71.7,29.08,East,98,1.1,5.8,92,0.00,,FEW,0.00,WeatherDisplay:10.37,2013-05-02 01:01:00,
2013-05-01 20:06:00,74.0,71.8,29.08,ESE,110,4.9,9.2,93,0.00,,FEW,0.00,WeatherDisplay:10.37,2013-05-02 01:06:00,
2013-05-01 20:11:00,74.0,71.8,29.08,East,88,3.4,8.1,93,0.00,,FEW,0.00,WeatherDisplay:10.37,2013-05-02 01:11:00,
2013-05-01 20:16:00,73.9,71.7,29.08,ESE,108,3.6,8.1,93,0.00,,FEW,0.00,WeatherDisplay:10.37,2013-05-02 01:16:00,
2013-05-01 20:21:00,73.8,71.6,29.08,ENE,77,1.7,6.9,93,0.00,,FEW,0.00,WeatherDisplay:10.37,2013-05-02 01:21:00,
2013-05-01 20:26:00,73.7,71.9,29.08,ESE,111,3.5,3.5,94,0.00,,FEW,0.00,WeatherDisplay:10.37,2013-05-02 01:26:00,
2013-05-01 20:31:00,73.6,71.8,29.08,SE,133,5.8,8.1,94,0.00,,FEW,0.00,WeatherDisplay:10.37,2013-05-02 01:31:00,
2013-05-01 20:36:00,73.6,71.8,29.08,ENE,67,2.6,3.8,94,0.00,,FEW,0.00,WeatherDisplay:10.37,2013-05-02 01:36:00,
2013-05-01 20:41:00,73.6,71.8,29.08,ESE,114,0.7,5.8,94,0.00,,FEW,0.00,WeatherDisplay:10.37,2013-05-02 01:41:00,
2013-05-01 20:46:00,73.6,71.8,29.08,ESE,104,3.6,3.6,94,0.00,,FEW,0.00,WeatherDisplay:10.37,2013-05-02 01:46:00,
2013-05-01 20:51:00,73.5,71.7,29.08,ENE,76,2.5,5.8,94,0.00,,FEW,0.00,WeatherDisplay:10.37,2013-05-02 01:51:00,
2013-05-01 20:56:00,73.5,71.7,29.08,ENE,57,2.3,5.8,94,0.00,,FEW,0.00,WeatherDisplay:10.37,2013-05-02 01:56:00,
2013-05-01 21:01:00,73.4,71.6,29.08,ESE,107,3.0,4.6,94,0.00,,FEW,0.00,WeatherDisplay:10.37,2013-05-02 02:01:00,
2013-05-01 21:06:00,73.3,71.8,29.08,ESE,118,2.7,6.9,95,0.00,,FEW,0.00,WeatherDisplay:10.37,2013-05-02 02:06:00,
2013-05-01 21:11:00,73.3,71.8,29.09,ENE,71,8.7,8.7,95,0.00,,FEW,0.00,WeatherDisplay:10.37,2013-05-02 02:11:00,
2013-05-01 21:16:00,73.3,71.8,29.09,East,80,4.9,5.8,95,0.00,,FEW,0.00,WeatherDisplay:10.37,2013-05-02 02:16:00,
2013-05-01 21:21:00,73.3,71.8,29.09,East,80,2.9,4.6,95,0.00,,FEW,0.00,WeatherDisplay:10.37,2013-05-02 02:21:00,
2013-05-01 21:26:00,73.2,71.7,29.09,East,101,4.0,8.1,95,0.00,,FEW,0.00,WeatherDisplay:10.37,2013-05-02 02:26:00,
2013-05-01 21:31:00,73.2,71.7,29.09,ESE,105,3.8,9.2,95,0.00,,FEW,0.00,WeatherDisplay:10.37,2013-05-02 02:31:00,
2013-05-01 21:36:00,73.2,71.7,29.09,ESE,121,5.3,8.1,95,0.00,,FEW,0.00,WeatherDisplay:10.37,2013-05-02 02:36:00,
2013-05-01 21:41:00,73.2,71.7,29.09,East,83,5.4,9.2,95,0.00,,FEW,0.00,WeatherDisplay:10.37,2013-05-02 02:41:00,
2013-05-01 21:46:00,73.2,71.7,29.10,ESE,115,3.8,4.6,95,0.00,,FEW,0.00,WeatherDisplay:10.37,2013-05-02 02:46:00,
2013-05-01 21:51:00,73.1,71.6,29.10,East,90,2.2,9.2,95,0.00,,FEW,0.00,WeatherDisplay:10.37,2013-05-02 02:51:00,
2013-05-01 21:56:00,73.2,71.7,29.10,East,98,4.6,11.3,95,0.00,,FEW,0.00,WeatherDisplay:10.37,2013-05-02 02:56:00,
2013-05-01 22:01:00,73.2,71.7,29.09,ESE,111,3.4,5.8,95,0.00,,FEW,0.00,WeatherDisplay:10.37,2013-05-02 03:01:00,
2013-05-01 22:06:00,73.2,71.7,29.10,East,92,4.2,8.4,95,0.00,,FEW,0.00,WeatherDisplay:10.37,2013-05-02 03:06:00,
2013-05-01 22:11:00,73.2,71.7,29.10,ENE,78,5.4,9.2,95,0.00,,FEW,0.00,WeatherDisplay:10.37,2013-05-02 03:11:00,
2013-05-01 22:16:00,73.2,71.7,29.10,ESE,119,6.0,6.0,95,0.00,,FEW,0.00,WeatherDisplay:10.37,2013-05-02 03:16:00,
2013-05-01 22:21:00,73.2,71.7,29.11,SE,128,4.0,9.4,95,0.00,,FEW,0.00,WeatherDisplay:10.37,2013-05-02 03:21:00,
2013-05-01 22:26:00,73.3,71.5,29.11,ESE,102,4.0,9.2,94,0.00,,FEW,0.00,WeatherDisplay:10.37,2013-05-02 03:26:00,
2013-05-01 22:31:00,73.3,71.8,29.11,ESE,123,2.7,8.1,95,0.00,,FEW,0.00,WeatherDisplay:10.37,2013-05-02 03:31:00,
2013-05-01 22:36:00,73.2,71.7,29.11,ESE,120,3.8,10.4,95,0.00,,FEW,0.00,WeatherDisplay:10.37,2013-05-02 03:36:00,
2013-05-01 22:41:00,73.2,71.7,29.11,ESE,106,2.2,9.2,95,0.00,,FEW,0.00,WeatherDisplay:10.37,2013-05-02 03:41:00,
2013-05-01 22:46:00,73.2,71.7,29.11,East,90,4.6,5.8,95,0.00,,FEW,0.00,WeatherDisplay:10.37,2013-05-02 03:46:00,
2013-05-01 22:51:00,73.2,71.7,29.11,SE,143,3.6,5.8,95,0.00,,FEW,0.00,WeatherDisplay:10.37,2013-05-02 03:51:00,
2013-05-01 22:56:00,73.1,71.6,29.11,SE,130,4.1,5.8,95,0.00,,FEW,0.00,WeatherDisplay:10.37,2013-05-02 03:56:00,
2013-05-01 23:01:00,73.1,71.6,29.11,ESE,104,4.0,5.8,95,0.00,,FEW,0.00,WeatherDisplay:10.37,2013-05-02 04:01:00,
2013-05-01 23:06:00,73.1,71.6,29.12,East,90,4.6,5.8,95,0.00,,FEW,0.00,WeatherDisplay:10.37,2013-05-02 04:06:00,
2013-05-01 23:11:00,73.1,71.6,29.12,East,95,4.8,8.1,95,0.00,,FEW,0.00,WeatherDisplay:10.37,2013-05-02 04:11:00,
2013-05-01 23:16:00,73.1,71.6,29.12,ESE,111,3.2,9.2,95,0.00,,FEW,0.00,WeatherDisplay:10.37,2013-05-02 04:16:00,
2013-05-01 23:21:00,73.1,71.6,29.12,ESE,102,5.0,6.3,95,0.00,,FEW,0.00,WeatherDisplay:10.37,2013-05-02 04:21:00,
2013-05-01 23:26:00,73.1,71.6,29.12,ESE,116,5.7,8.1,95,0.00,,FEW,0.00,WeatherDisplay:10.37,2013-05-02 04:26:00,
2013-05-01 23:31:00,73.1,71.6,29.12,ESE,114,2.5,4.6,95,0.00,,FEW,0.00,WeatherDisplay:10.37,2013-05-02 04:31:00,
2013-05-01 23:36:00,73.1,71.6,29.12,ESE,111,4.2,6.9,95,0.00,,FEW,0.00,WeatherDisplay:10.37,2013-05-02 04:36:00,
2013-05-01 23:41:00,73.1,71.6,29.13,SE,124,3.3,5.8,95,0.00,,FEW,0.00,WeatherDisplay:10.37,2013-05-02 04:41:00,
2013-05-01 23:46:00,73.1,71.6,29.13,SE,130,1.1,5.8,95,0.00,,FEW,0.00,WeatherDisplay:10.37,2013-05-02 04:46:00,
2013-05-01 23:51:00,73.1,71.6,29.13,East,92,1.5,3.5,95,0.00,,FEW,0.00,WeatherDisplay:10.37,2013-05-02 04:51:00,
2013-05-01 23:56:00,73.1,71.6,29.13,SE,140,0.1,1.1,95,0.00,,FEW,0.00,WeatherDisplay:10.37,2013-05-02 04:56:00,